2023-003A (55133 NORAD) Tracking and Keplerian Element Data

This shows tracking and keplerian element data for the satellite.

Feedback or suggestion? Click here.




ElementValue
Catalog55133
Name2023-003A
Epoch Orbit1151
Epoch Day85.17066331
Epoch Year2023
RAAN172.2017
Inclination97.2619
Eccentricity0.0003899
Argument of Perigee6.0658
Mean Anonmoly84.1468
Mean Motion15.13516448
Decay Rate0.00030142
L11 55133U 23003A 23085.17066331 .00030142 00000+0 16806-2 0 9992
L22 55133 97.2619 172.2017 0003899 6.0658 84.1468 15.13516448 11514



Live tracking and technical data element details for 2023-003A (NORAD 55133). 2023-003A can be tracked NOW for your location showing map with azimuth and elevation plus other details from your city location.







IsCatalogInMostPopularTable: catalog: 55133, numindb: 7
Update: records affected: 1



GetName: 55133 2023-003A

Hit Count: updated at: Mon, 27 Mar 2023 06:33:04 GMT